This is the latest recevied weather packets stored in our database for station/object DL6MAA-11. If no packets are shown the sender has not sent any weather packets the latest 1 day(s).
| Time | Temp. | Humidity | Pressure | Rain* | Wind** | Luminosity | Snow |
|---|---|---|---|---|---|---|---|
| 1778001421 | 15° C | 68% | 1004.4 hPa | 0 mm | 0.45 m/s, 355° | 35 W/m² | - |
| 1778001124 | 15° C | 68% | 1004 hPa | 0 mm | 0.89 m/s, 340° | 37 W/m² | - |
| 1778000825 | 15.56° C | 68% | 1004 hPa | 0 mm | 0.89 m/s, 351° | 39 W/m² | - |
| 1778000507 | 15.56° C | 67% | 1004 hPa | 0 mm | 0.89 m/s, 309° | 32 W/m² | - |
| 1778000228 | 15.56° C | 64% | 1004.5 hPa | 0 mm | 1.34 m/s, 299° | 28 W/m² | - |
| 1777999923 | 15.56° C | 64% | 1004.5 hPa | 0 mm | 1.34 m/s, 290° | 28 W/m² | - |
| 1777999625 | 15.56° C | 64% | 1004.5 hPa | 0 mm | 0.89 m/s, 292° | 28 W/m² | - |
| 1777999310 | 16.11° C | 64% | 1004.6 hPa | 0 mm | 0.89 m/s, 277° | 33 W/m² | - |
| 1777999021 | 16.11° C | 63% | 1004.6 hPa | 0 mm | 0.89 m/s, 299° | 30 W/m² | - |
| 1777998712 | 16.11° C | 64% | 1004.6 hPa | 0 mm | 0.89 m/s, 284° | 39 W/m² | - |
| 1777998413 | 16.11° C | 64% | 1004.6 hPa | 0 mm | 0.89 m/s, 360° | 53 W/m² | - |
| 1777998126 | 16.11° C | 63% | 1004.6 hPa | 0 mm | 1.34 m/s, 287° | 44 W/m² | - |
| 1777997825 | 16.11° C | 62% | 1004.6 hPa | 0 mm | 2.24 m/s, 303° | 53 W/m² | - |
| 1777997511 | 16.11° C | 62% | 1004.6 hPa | 0 mm | 2.68 m/s, 296° | 54 W/m² | - |
| 1777997216 | 16.11° C | 62% | 1004.6 hPa | 0 mm | 2.68 m/s, 268° | 53 W/m² | - |
| 1777996923 | 16.11° C | 61% | 1004.6 hPa | 0 mm | 2.24 m/s, 311° | 65 W/m² | - |
| 1777996625 | 16.67° C | 61% | 1004.5 hPa | 0 mm | 2.68 m/s, 298° | 79 W/m² | - |
| 1777996322 | 16.67° C | 60% | 1004.5 hPa | 0 mm | 2.68 m/s, 313° | 100 W/m² | - |
| 1777996014 | 17.22° C | 60% | 1004.5 hPa | 0 mm | 2.24 m/s, 303° | 120 W/m² | - |
| 1777995708 | 17.22° C | 59% | 1004.3 hPa | 0 mm | 2.24 m/s, 272° | 144 W/m² | - |
| 1777995422 | 17.22° C | 58% | 1004.3 hPa | 0 mm | 2.24 m/s, 325° | 139 W/m² | - |
| 1777995117 | 17.22° C | 57% | 1004.3 hPa | 0 mm | 1.79 m/s, 277° | 149 W/m² | - |
| 1777994818 | 17.22° C | 56% | 1004.3 hPa | 0 mm | 1.34 m/s, 360° | 149 W/m² | - |
| 1777994527 | 17.78° C | 57% | 1004.3 hPa | 0 mm | 2.24 m/s, 315° | 148 W/m² | - |
| 1777994226 | 17.78° C | 56% | 1004.3 hPa | 0 mm | 2.24 m/s, 309° | 181 W/m² | - |
* Rain since midnight (hover to see other rain measurements)
** Current wind speed in m/s (hover to see current wind gust speed)